Weather History for KSDA - May, 2014

Change the Weather History Date:

Tuesday, May 13, 2014

  Actual Average Record
Temperature  
Mean Temperature 54 °F -  
Max Temperature 62 °F 72 °F 93 °F (2001)
Min Temperature 46 °F 49 °F 30 °F (1997)
Degree Days  
Heating Degree Days 11    
Growing Degree Days 4 (Base 50)    
Moisture  
Dew Point 39 °F    
Average Humidity 61    
Maximum Humidity 87    
Minimum Humidity 37    
Precipitation  
Precipitation 0.00 in - - ()
Sea Level Pressure  
Sea Level Pressure 30.19 in    
Wind  
Wind Speed 12 mph (NNW)    
Max Wind Speed 20 mph    
Max Gust Speed 26 mph    
Visibility 10 miles    
Events      
Averages and records for this station are not official NWS values.
T = Trace of Precipitation, MM = Missing Value Source: NWS Daily Summary

Daily Weather History Graph

Daily Weather History Graph

Search for Another Location

Airport or City:

Trip Planner

Search our weather history database for the weather conditions in past years. The results will help you decide how hot, cold, wet, or windy it might be!

Date:

Astronomy

May. 13, 2014 Rise Set
Actual Time 6:06 AM CDT 8:30 PM CDT
Civil Twilight 5:35 AM CDT 9:01 PM CDT
Nautical Twilight 4:57 AM CDT 9:39 PM CDT
Astronomical Twilight 4:14 AM CDT 10:22 PM CDT
Moon 7:32 PM CDT (5/13) 5:24 AM CDT (5/13)
Length of Visible Light 15h 25m
Length of Day
14h 23m
Waxing Gibbous, 99% of the Moon is Illuminated
May 13
Waxing Gibbous
May 14
Full
May 21
Last Quarter
May 28
New
Jun 5
First Quarter

Hourly Weather History & Observations

Time (CDT) Temp. Windchill Dew Point Humidity Pressure Visibility Wind Dir Wind Speed Gust Speed Precip Events Conditions
12:15 AM 48.2 °F - 44.6 °F 87% 30.05 in 10.0 mi NNW 9.2 mph 16.1 mph N/A   Overcast
12:35 AM 48.2 °F - 42.8 °F 82% 30.07 in 10.0 mi NNW 9.2 mph 16.1 mph N/A   Overcast
1:15 AM 48.2 °F - 42.8 °F 82% 30.10 in 10.0 mi NW 12.7 mph - N/A   Overcast
1:35 AM 48.2 °F - 42.8 °F 82% 30.09 in 10.0 mi NW 10.4 mph 17.3 mph N/A   Overcast
1:55 AM 48.2 °F - 42.8 °F 82% 30.09 in 10.0 mi NW 9.2 mph 15.0 mph N/A   Overcast
2:15 AM 48.2 °F - 42.8 °F 82% 30.09 in 10.0 mi NW 8.1 mph - N/A   Overcast
2:35 AM 48.2 °F - 42.8 °F 82% 30.09 in 10.0 mi NW 12.7 mph - N/A   Overcast
2:55 AM 48.2 °F - 41.0 °F 76% 30.09 in 10.0 mi NNW 12.7 mph 20.7 mph N/A   Overcast
3:15 AM 48.2 °F - 42.8 °F 82% 30.09 in 10.0 mi NNW 12.7 mph 19.6 mph N/A   Overcast
3:35 AM 48.2 °F - 42.8 °F 82% 30.08 in 10.0 mi NW 10.4 mph - N/A   Overcast
3:55 AM 48.2 °F - 42.8 °F 82% 30.08 in 10.0 mi NW 15.0 mph 20.7 mph N/A   Overcast
4:15 AM 48.2 °F - 41.0 °F 76% 30.08 in 10.0 mi NNW 15.0 mph 23.0 mph N/A   Overcast
4:35 AM 48.2 °F - 42.8 °F 82% 30.09 in 10.0 mi NNW 12.7 mph 19.6 mph N/A   Overcast
4:55 AM 48.2 °F - 42.8 °F 82% 30.10 in 10.0 mi NNW 10.4 mph - N/A   Overcast
5:15 AM 48.2 °F - 42.8 °F 82% 30.11 in 10.0 mi NW 10.4 mph - N/A   Overcast
5:35 AM 48.2 °F - 41.0 °F 76% 30.11 in 10.0 mi NNW 11.5 mph - N/A   Overcast
5:55 AM 48.2 °F - 41.0 °F 76% 30.12 in 10.0 mi NNW 13.8 mph 19.6 mph N/A   Overcast
6:15 AM 46.4 °F 40.1 °F 41.0 °F 81% 30.12 in 10.0 mi NNW 15.0 mph - N/A   Overcast
6:35 AM 48.2 °F - 41.0 °F 76% 30.13 in 10.0 mi NNW 11.5 mph 19.6 mph N/A   Overcast
6:55 AM 48.2 °F - 41.0 °F 76% 30.14 in 10.0 mi NNW 16.1 mph - N/A   Overcast
7:15 AM 46.4 °F 41.1 °F 41.0 °F 81% 30.14 in 10.0 mi NNW 11.5 mph - N/A   Overcast
8:15 AM 48.2 °F - 41.0 °F 76% 30.16 in 10.0 mi NNW 13.8 mph - N/A   Clear
8:35 AM 48.2 °F - 41.0 °F 76% 30.15 in 10.0 mi NNW 12.7 mph - N/A   Partly Cloudy
8:55 AM 50.0 °F - 41.0 °F 71% 30.17 in 10.0 mi NNW 12.7 mph 19.6 mph N/A   Partly Cloudy
9:10 AM 50.0 °F - 41.0 °F 71% 30.17 in 10.0 mi NNW 15.0 mph - N/A   Partly Cloudy
11:35 AM 57.2 °F - 35.6 °F 44% 30.23 in 10.0 mi NNW 17.3 mph - N/A   Clear
11:55 AM 57.2 °F - 35.6 °F 44% 30.24 in 10.0 mi NNW 15.0 mph 26.5 mph N/A   Clear
12:15 PM 57.2 °F - 35.6 °F 44% 30.23 in 10.0 mi NNW 18.4 mph - N/A   Partly Cloudy
12:35 PM 59.0 °F - 35.6 °F 42% 30.23 in 10.0 mi NNW 19.6 mph 26.5 mph N/A   Scattered Clouds
12:55 PM 57.2 °F - 35.6 °F 44% 30.23 in 10.0 mi NNW 17.3 mph 24.2 mph N/A   Mostly Cloudy
1:15 PM 57.2 °F - 35.6 °F 44% 30.23 in 10.0 mi NNW 16.1 mph 25.3 mph N/A   Mostly Cloudy
1:35 PM 59.0 °F - 35.6 °F 42% 30.23 in 10.0 mi NW 13.8 mph 23.0 mph N/A   Scattered Clouds
1:55 PM 59.0 °F - 35.6 °F 42% 30.23 in 10.0 mi NNW 19.6 mph 26.5 mph N/A   Scattered Clouds
2:15 PM 59.0 °F - 37.4 °F 45% 30.23 in 10.0 mi NNW 18.4 mph - N/A   Mostly Cloudy
2:35 PM 59.0 °F - 35.6 °F 42% 30.23 in 10.0 mi NNW 17.3 mph 25.3 mph N/A   Mostly Cloudy
2:55 PM 59.0 °F - 35.6 °F 42% 30.23 in 10.0 mi North 15.0 mph 23.0 mph N/A   Mostly Cloudy
3:15 PM 59.0 °F - 35.6 °F 42% 30.23 in 10.0 mi NNW 13.8 mph 21.9 mph N/A   Overcast
3:35 PM 60.8 °F - 37.4 °F 42% 30.22 in 10.0 mi NNW 13.8 mph - N/A   Mostly Cloudy
3:55 PM 60.8 °F - 35.6 °F 39% 30.21 in 10.0 mi NNW 12.7 mph - N/A   Mostly Cloudy
4:15 PM 60.8 °F - 37.4 °F 42% 30.21 in 10.0 mi North 12.7 mph 19.6 mph N/A   Mostly Cloudy
4:35 PM 59.0 °F - 35.6 °F 42% 30.21 in 10.0 mi NNW 13.8 mph 19.6 mph N/A   Mostly Cloudy
4:55 PM 60.8 °F - 35.6 °F 39% 30.21 in 10.0 mi NNW 12.7 mph 18.4 mph N/A   Mostly Cloudy
5:15 PM 60.8 °F - 35.6 °F 39% 30.21 in 10.0 mi NNW 12.7 mph 19.6 mph N/A   Scattered Clouds
5:35 PM 62.6 °F - 35.6 °F 37% 30.22 in 10.0 mi NW 8.1 mph 17.3 mph N/A   Mostly Cloudy
5:55 PM 60.8 °F - 35.6 °F 39% 30.22 in 10.0 mi North 12.7 mph - N/A   Scattered Clouds
6:15 PM 59.0 °F - 35.6 °F 42% 30.22 in 10.0 mi NNW 13.8 mph - N/A   Partly Cloudy
6:35 PM 59.0 °F - 35.6 °F 42% 30.22 in 10.0 mi NNW 12.7 mph - N/A   Partly Cloudy
7:15 PM 59.0 °F - 35.6 °F 42% 30.22 in 10.0 mi North 10.4 mph 19.6 mph N/A   Partly Cloudy
7:35 PM 59.0 °F - 35.6 °F 42% 30.23 in 10.0 mi North 11.5 mph - N/A   Partly Cloudy
7:55 PM 57.2 °F - 37.4 °F 48% 30.24 in 10.0 mi North 10.4 mph - N/A   Scattered Clouds
8:15 PM 55.4 °F - 37.4 °F 51% 30.24 in 10.0 mi North 6.9 mph - N/A   Scattered Clouds
8:35 PM 53.6 °F - 37.4 °F 54% 30.25 in 10.0 mi North 6.9 mph - N/A   Partly Cloudy
8:55 PM 53.6 °F - 37.4 °F 54% 30.27 in 10.0 mi North 5.8 mph - N/A   Clear
9:15 PM 51.8 °F - 37.4 °F 58% 30.27 in 10.0 mi North 5.8 mph - N/A   Clear
9:35 PM 50.0 °F - 37.4 °F 62% 30.28 in 10.0 mi North 4.6 mph - N/A   Clear
9:55 PM 48.2 °F - 39.2 °F 71% 30.29 in 10.0 mi North 4.6 mph - N/A   Clear
10:15 PM 50.0 °F - 37.4 °F 62% 30.29 in 10.0 mi North 5.8 mph - N/A   Clear
10:35 PM 50.0 °F - 37.4 °F 62% 30.29 in 10.0 mi North 4.6 mph - N/A   Clear
10:55 PM 46.4 °F 43.5 °F 37.4 °F 71% 30.29 in 10.0 mi North 5.8 mph - N/A   Clear
11:15 PM 46.4 °F 44.3 °F 37.4 °F 71% 30.29 in 10.0 mi North 4.6 mph - N/A   Clear
11:35 PM 46.4 °F 45.2 °F 37.4 °F 71% 30.29 in 10.0 mi NE 3.5 mph - N/A   Clear
11:55 PM 46.4 °F 44.3 °F 37.4 °F 71% 30.29 in 10.0 mi NNE 4.6 mph - N/A   Clear